Limon, CO

3:17 PM MDT on May 24, 2017 (GMT -0600)
Limon Municipal

Weather History for KLIC - November, 2012

Change the Weather History Date:

Thursday, November 8, 2012

  Actual Average Record
Temperature  
Mean Temperature 46 °F -  
Max Temperature 67 °F - 79 °F (2006)
Min Temperature 25 °F - 12 °F (1996)
Degree Days  
Heating Degree Days 19    
Month to date heating degree days 161  
Cooling Degree Days 0    
Month to date cooling degree days 0  
Moisture  
Dew Point 24 °F    
Average Humidity 45    
Maximum Humidity 89    
Minimum Humidity 18    
Precipitation  
Precipitation 0.00 in - 0.08 in (2001)
Month to date precipitation 0.00  
Year to date precipitation 9.29  
Sea Level Pressure  
Sea Level Pressure 29.85 in    
Wind  
Wind Speed 9 mph (NE)    
Max Wind Speed 18 mph    
Max Gust Speed 24 mph    
Visibility 10 miles    
Events      
T = Trace of Precipitation, MM = Missing Value Source: NWS Daily Summary

Daily Weather History Graph

Daily Weather History Graph

Search for Another Location

Airport or City:

Trip Planner

Search our weather history database for the weather conditions in past years. The results will help you decide how hot, cold, wet, or windy it might be!

Date:

Astronomy

Nov. 08, 2012 Rise Set
Actual Time 6:30 AM MST 4:45 PM MST
Civil Twilight 6:02 AM MST 5:13 PM MST
Nautical Twilight 5:30 AM MST 5:45 PM MST
Astronomical Twilight 4:59 AM MST 6:17 PM MST
Moon 12:30 AM MST (11/8) 1:25 PM MST (11/8)
Length of Visible Light 11h 11m
Length of Day
10h 14m
Waning Crescent, 32% of the Moon is Illuminated
Nov 8
Waning Crescent
Nov 13
New
Nov 20
First Quarter
Nov 28
Full
Dec 6
Last Quarter

Hourly Weather History & Observations

Time (MST) Temp. Windchill Dew Point Humidity Pressure Visibility Wind Dir Wind Speed Gust Speed Precip Events Conditions
12:55 AM 41.0 °F 33.9 °F 24.1 °F 51% 29.80 in 10.0 mi West 12.7 mph - N/A   Clear
1:55 AM 39.9 °F 37.8 °F 23.0 °F 51% 29.81 in 10.0 mi NW 3.5 mph - N/A   Clear
2:55 AM 36.0 °F - 21.9 °F 57% 29.82 in 10.0 mi Calm Calm - N/A   Clear
3:55 AM 39.0 °F 36.8 °F 21.9 °F 50% 29.84 in 10.0 mi Variable 3.5 mph - N/A   Clear
4:55 AM 37.9 °F 34.4 °F 21.0 °F 51% 29.89 in 10.0 mi NNW 4.6 mph - N/A   Clear
5:55 AM 32.0 °F 26.4 °F 19.9 °F 61% 29.97 in 10.0 mi WNW 5.8 mph - N/A   Clear
6:55 AM 37.0 °F 34.5 °F 19.0 °F 48% 29.98 in 10.0 mi WNW 3.5 mph - N/A   Clear
7:55 AM 46.0 °F 40.6 °F 19.0 °F 34% 29.98 in 10.0 mi WNW 11.5 mph - N/A   Clear
8:55 AM 57.9 °F - 19.9 °F 23% 29.94 in 10.0 mi West 9.2 mph - N/A   Clear
9:55 AM 63.0 °F - 19.0 °F 18% 29.91 in 10.0 mi NNE 17.3 mph - N/A   Clear
10:09 AM 62.6 °F - 19.4 °F 19% 29.99 in 10.0 mi NNE 13.8 mph - N/A   Clear
10:55 AM 64.9 °F - 21.9 °F 19% 29.88 in 10.0 mi NE 15.0 mph - N/A   Clear
11:55 AM 66.0 °F - 21.9 °F 19% 29.81 in 10.0 mi ENE 13.8 mph - N/A   Clear
12:55 PM 64.9 °F - 23.0 °F 20% 29.78 in 10.0 mi ENE 13.8 mph - N/A   Clear
1:55 PM 64.9 °F - 26.1 °F 23% 29.78 in 10.0 mi East 13.8 mph - N/A   Clear
2:55 PM 64.0 °F - 25.0 °F 23% 29.78 in 10.0 mi ESE 11.5 mph - N/A   Clear
3:55 PM 60.1 °F - 27.0 °F 28% 29.78 in 10.0 mi ESE 16.1 mph - N/A   Clear
4:55 PM 50.0 °F - 28.9 °F 44% 29.82 in 10.0 mi ESE 9.2 mph - N/A   Clear
5:55 PM 50.0 °F - 30.0 °F 46% 29.85 in 10.0 mi East 16.1 mph - N/A   Clear
6:55 PM 44.1 °F 39.5 °F 30.0 °F 58% 29.85 in 10.0 mi SSE 8.1 mph - N/A   Clear
7:55 PM 39.0 °F 34.0 °F 28.9 °F 67% 29.83 in 10.0 mi SSE 6.9 mph - N/A   Clear
8:55 PM 33.1 °F - 26.1 °F 75% 29.81 in 10.0 mi Calm Calm - N/A   Clear
9:55 PM 35.1 °F 32.2 °F 28.0 °F 76% 29.78 in 10.0 mi South 3.5 mph - N/A   Clear
10:55 PM 34.0 °F 28.8 °F 28.0 °F 79% 29.76 in 10.0 mi SSW 5.8 mph - N/A   Clear
11:55 PM 27.0 °F - 24.1 °F 89% 29.75 in 10.0 mi Calm Calm - N/A   Clear